Weather History for KPHD - August, 2012

Change the Weather History Date:

Friday, August 24, 2012

  Actual Average Record
Temperature  
Mean Temperature 71 °F 71 °F  
Max Temperature 88 °F 82 °F 96 °F (1968)
Min Temperature 54 °F 59 °F 43 °F (1971)
Degree Days  
Heating Degree Days 0 0  
Month to date heating degree days 1 0  
Since 1 June heating degree days 19 38  
Since 1 July heating degree days 1 3  
Cooling Degree Days 6 6  
Month to date cooling degree days 148 164  
Year to date cooling degree days 852 584  
Since 1 June cooling degree days 705 541  
Growing Degree Days 20 (Base 50)    
Moisture  
Dew Point 57 °F    
Average Humidity 69    
Maximum Humidity 100    
Minimum Humidity 37    
Precipitation  
Precipitation 0.00 in 0.12 in 2.18 in (1998)
Month to date precipitation 1.74 2.66  
Year to date precipitation 18.15 26.02  
Sea Level Pressure  
Sea Level Pressure 30.14 in    
Wind  
Wind Speed 2 mph (SE)    
Max Wind Speed 10 mph    
Max Gust Speed 14 mph    
Visibility 5 miles    
Events Fog    
T = Trace of Precipitation, MM = Missing Value Source: NWS Daily Summary

Daily Weather History Graph

Daily Weather History Graph

Search for Another Location

Airport or City:

Trip Planner

Search our weather history database for the weather conditions in past years. The results will help you decide how hot, cold, wet, or windy it might be!

Date:

Astronomy

Aug. 24, 2012 Rise Set
Actual Time 6:45 AM EDT 8:09 PM EDT
Civil Twilight 6:17 AM EDT 8:37 PM EDT
Nautical Twilight 5:42 AM EDT 9:11 PM EDT
Astronomical Twilight 5:06 AM EDT 9:47 PM EDT
Moon 2:38 PM EDT (8/24) No Moon Set
Length of Visible Light 14h 20m
Length of Day
13h 23m
Waxing Crescent, 51% of the Moon is Illuminated
Aug 24
Waxing Crescent
Aug 31
Full
Sep 8
Last Quarter
Sep 15
New
Sep 22
First Quarter

Hourly Weather History & Observations

Time (EDT) Temp. Heat Index Dew Point Humidity Pressure Visibility Wind Dir Wind Speed Gust Speed Precip Events Conditions
12:53 AM 61.0 °F - 57.9 °F 90% 30.14 in 5.0 mi Calm Calm - N/A   Clear
1:53 AM 60.1 °F - 57.9 °F 93% 30.14 in 3.0 mi Calm Calm - N/A   Clear
2:53 AM 59.0 °F - 57.0 °F 93% 30.14 in 4.0 mi Calm Calm - N/A   Clear
3:16 AM 57.2 °F - 55.4 °F 94% 30.15 in 2.5 mi Calm Calm - N/A   Clear
3:44 AM 57.2 °F - 55.4 °F 94% 30.15 in 1.5 mi Calm Calm - N/A   Clear
3:53 AM 55.9 °F - 55.0 °F 97% 30.13 in 3.0 mi Calm Calm - N/A   Clear
4:08 AM 57.2 °F - 55.4 °F 94% 30.14 in 2.5 mi Calm Calm - N/A   Clear
4:23 AM 57.2 °F - 55.4 °F 94% 30.15 in 1.0 mi Calm Calm - N/A   Clear
4:30 AM 57.2 °F - 55.4 °F 94% 30.14 in 0.5 mi Calm Calm - N/A Fog Fog
4:37 AM 57.2 °F - 55.4 °F 94% 30.14 in 1.2 mi Calm Calm - N/A   Clear
4:53 AM 57.0 °F - 55.0 °F 93% 30.13 in 1.5 mi Calm Calm - N/A   Clear
5:01 AM 55.4 °F - 55.4 °F 100% 30.15 in 0.5 mi Calm Calm - N/A Fog Fog
5:07 AM 57.2 °F - 55.4 °F 94% 30.15 in 1.2 mi Calm Calm - N/A   Clear
5:18 AM 55.4 °F - 55.4 °F 100% 30.15 in 2.0 mi Calm Calm - N/A   Clear
5:31 AM 55.4 °F - 53.6 °F 94% 30.15 in 1.0 mi Calm Calm - N/A   Clear
5:41 AM 55.4 °F - 55.4 °F 100% 30.15 in 2.5 mi Calm Calm - N/A   Clear
5:48 AM 55.4 °F - 53.6 °F 94% 30.15 in 1.0 mi Calm Calm - N/A   Clear
5:53 AM 55.9 °F - 54.0 °F 93% 30.14 in 0.5 mi Calm Calm - N/A Fog Fog
6:01 AM 55.4 °F - 53.6 °F 94% 30.15 in 1.2 mi Calm Calm - N/A   Clear
6:27 AM 53.6 °F - 53.6 °F 100% 30.16 in 3.0 mi SE 3.5 mph - N/A   Clear
6:53 AM 55.0 °F - 54.0 °F 96% 30.16 in 2.0 mi Calm Calm - N/A   Clear
7:08 AM 55.4 °F - 53.6 °F 94% 30.17 in 3.0 mi Calm Calm - N/A   Clear
7:21 AM 55.4 °F - 55.4 °F 100% 30.17 in 2.5 mi Calm Calm - N/A   Clear
7:31 AM 57.2 °F - 55.4 °F 94% 30.18 in 3.0 mi Calm Calm - N/A   Clear
7:51 AM 57.2 °F - 55.4 °F 94% 30.18 in 2.5 mi Calm Calm - N/A   Clear
7:53 AM 59.0 °F - 55.9 °F 90% 30.17 in 2.5 mi Calm Calm - N/A   Clear
8:02 AM 59.0 °F - 57.2 °F 94% 30.18 in 3.0 mi Calm Calm - N/A   Clear
8:12 AM 60.8 °F - 57.2 °F 88% 30.18 in 2.5 mi Calm Calm - N/A   Clear
8:20 AM 60.8 °F - 57.2 °F 88% 30.19 in 3.0 mi Calm Calm - N/A   Clear
8:53 AM 64.0 °F - 60.1 °F 87% 30.18 in 5.0 mi Calm Calm - N/A   Clear
9:53 AM 71.1 °F - 62.1 °F 73% 30.18 in 9.0 mi Calm Calm - N/A   Clear
10:53 AM 75.9 °F - 64.0 °F 67% 30.18 in 10.0 mi East 3.5 mph - N/A   Clear
11:53 AM 81.0 °F 81.9 °F 62.1 °F 52% 30.17 in 10.0 mi SSE 4.6 mph - N/A   Clear
12:53 PM 82.9 °F 83.2 °F 60.1 °F 46% 30.14 in 10.0 mi ESE 4.6 mph - N/A   Clear
1:53 PM 84.9 °F 84.4 °F 59.0 °F 41% 30.13 in 10.0 mi South 4.6 mph - N/A   Partly Cloudy
2:53 PM 86.0 °F 85.0 °F 57.9 °F 38% 30.11 in 10.0 mi South 5.8 mph - N/A   Clear
3:53 PM 86.0 °F 84.9 °F 57.0 °F 37% 30.10 in 10.0 mi Variable 3.5 mph - N/A   Clear
4:53 PM 86.0 °F 85.4 °F 59.0 °F 40% 30.09 in 10.0 mi SE 4.6 mph - N/A   Clear
5:53 PM 84.9 °F 84.2 °F 57.9 °F 40% 30.09 in 10.0 mi SE 3.5 mph - N/A   Clear
6:53 PM 82.9 °F 82.6 °F 57.9 °F 42% 30.09 in 10.0 mi SE 4.6 mph - N/A   Clear
7:53 PM 75.9 °F - 61.0 °F 60% 30.10 in 10.0 mi SSE 3.5 mph - N/A   Clear
8:53 PM 70.0 °F - 61.0 °F 73% 30.11 in 10.0 mi ESE 3.5 mph - N/A   Clear
9:53 PM 64.9 °F - 60.1 °F 84% 30.12 in 9.0 mi ESE 3.5 mph - N/A   Clear
10:53 PM 64.0 °F - 60.1 °F 87% 30.12 in 7.0 mi Calm Calm - N/A   Clear
11:53 PM 64.0 °F - 60.1 °F 87% 30.13 in 7.0 mi Calm Calm - N/A   Clear